Weather History for Sedalia, MO

Change the Weather History Date:

Friday, July 5, 2013

  Actual Average Record
Temperature  
Mean Temperature 75 °F 79 °F  
Max Temperature 88 °F 88 °F 103 °F (2012)
Min Temperature 61 °F 69 °F 46 °F (1972)
Degree Days  
Heating Degree Days 0 0  
Month to date heating degree days 0 0  
Since 1 June heating degree days 9 6  
Since 1 July heating degree days 0 0  
Cooling Degree Days 10 14  
Month to date cooling degree days 38 67  
Year to date cooling degree days 493 510  
Since 1 June cooling degree days 345 371  
Growing Degree Days 25 (Base 50)    
Moisture  
Dew Point 60 °F    
Average Humidity 65    
Maximum Humidity 90    
Minimum Humidity 40    
Precipitation  
Precipitation 0.00 in 0.12 in 1.57 in (1979)
Month to date precipitation 0.43 0.65  
Year to date precipitation 25.84 20.89  
Sea Level Pressure  
Sea Level Pressure 30.00 in    
Wind  
Wind Speed 8 mph (SSE)    
Max Wind Speed 15 mph    
Max Gust Speed 18 mph    
Visibility 10 miles    
Events      
T = Trace of Precipitation, MM = Missing Value Source: NWS Daily Summary

Daily Weather History Graph

Daily Weather History Graph

Search for Another Location

Airport:

Trip Planner

Search our weather history database for the weather conditions in past years. The results will help you decide how hot, cold, wet, or windy it might be!

Date:

Astronomy

Jul. 05, 2013 Rise Set
Actual Time 5:53 AM CDT 8:40 PM CDT
Civil Twilight 5:22 AM CDT 9:12 PM CDT
Nautical Twilight 4:42 AM CDT 9:51 PM CDT
Astronomical Twilight 3:57 AM CDT 10:36 PM CDT
Moon 3:53 AM CDT (7/5) 6:36 PM CDT (7/5)
Length of Visible Light 15h 49m
Length of Day
14h 46m
Waning Crescent, 6% of the Moon is Illuminated
Jul 5
Waning Crescent
Jul 8
New
Jul 15
First Quarter
Jul 22
Full
Jul 29
Last Quarter

Hourly Weather History & Observations

Time (CDT) Temp. Heat Index Dew Point Humidity Pressure Visibility Wind Dir Wind Speed Gust Speed Precip Events Conditions
12:53 AM 66.0 °F - 59.0 °F 78% 30.00 in 10.0 mi South 4.6 mph - N/A   Clear
1:53 AM 64.9 °F - 59.0 °F 81% 30.00 in 10.0 mi SE 3.5 mph - N/A   Clear
2:53 AM 63.0 °F - 59.0 °F 87% 29.99 in 10.0 mi SSE 4.6 mph - N/A   Clear
3:53 AM 64.9 °F - 57.9 °F 78% 30.00 in 10.0 mi South 4.6 mph - N/A   Clear
4:53 AM 63.0 °F - 57.9 °F 84% 30.00 in 10.0 mi South 5.8 mph - N/A   Clear
5:53 AM 62.1 °F - 57.9 °F 86% 30.02 in 8.0 mi SE 4.6 mph - N/A   Clear
6:53 AM 64.9 °F - 59.0 °F 81% 30.02 in 10.0 mi South 5.8 mph - N/A   Clear
7:53 AM 70.0 °F - 61.0 °F 73% 30.03 in 10.0 mi South 8.1 mph - N/A   Clear
8:53 AM 75.0 °F - 62.1 °F 64% 30.04 in 10.0 mi South 8.1 mph - N/A   Clear
9:53 AM 79.0 °F - 61.0 °F 54% 30.03 in 10.0 mi SW 8.1 mph - N/A   Clear
10:53 AM 81.0 °F 82.2 °F 63.0 °F 54% 30.03 in 10.0 mi South 8.1 mph - N/A   Clear
11:53 AM 82.9 °F 83.7 °F 62.1 °F 49% 30.03 in 10.0 mi South 3.5 mph - N/A   Clear
12:53 PM 84.9 °F 85.4 °F 62.1 °F 46% 30.02 in 10.0 mi South 6.9 mph - N/A   Clear
1:53 PM 87.1 °F 87.0 °F 61.0 °F 41% 30.01 in 10.0 mi South 9.2 mph - N/A   Clear
2:53 PM 88.0 °F 87.6 °F 60.1 °F 39% 29.99 in 10.0 mi South 8.1 mph - N/A   Clear
3:53 PM 87.1 °F 86.7 °F 60.1 °F 40% 29.98 in 10.0 mi South 6.9 mph - N/A   Partly Cloudy
4:53 PM 87.1 °F 87.0 °F 61.0 °F 41% 29.97 in 10.0 mi South 9.2 mph - N/A   Clear
5:53 PM 86.0 °F 86.1 °F 61.0 °F 43% 29.96 in 10.0 mi SSE 11.5 mph - N/A   Scattered Clouds
6:53 PM 84.0 °F 84.5 °F 62.1 °F 47% 29.95 in 10.0 mi SSE 12.7 mph - N/A   Clear
7:53 PM 81.0 °F 81.7 °F 61.0 °F 50% 29.95 in 10.0 mi SSE 9.2 mph - N/A   Clear
8:53 PM 78.1 °F - 62.1 °F 58% 29.95 in 10.0 mi SE 8.1 mph - N/A   Clear
9:53 PM 75.9 °F - 61.0 °F 60% 29.96 in 10.0 mi SE 10.4 mph - N/A   Clear
10:53 PM 73.0 °F - 59.0 °F 61% 29.97 in 10.0 mi SE 9.2 mph - N/A   Clear
11:53 PM 71.1 °F - 59.0 °F 66% 29.98 in 10.0 mi SE 6.9 mph - N/A   Clear